User: anonymous   Login
Location: Dappach
(48.9767°N, 9.6998°E)
Time: 19:06:42
(UTC+00:00)
Language:

ASTEX 1 - Orbit

View from above orbital plane
View from above orbital plane
View from above satellite
View from above satellite

Ground track
Ground track

The orbit data is extracted from the following two-line orbital elements,

1  5560U 71089A   24202.22853809  .00001247  00000-0  32590-3 0  9994
2  5560  92.7221 318.5217 0014037 306.0020  53.9883 14.49460192775997
Epoch (UTC): 20 July 2024 05:29:05
Eccentricity: 0.0014037
inclination: 92.7221°
perigee height: 717 km
apogee height: 737 km
right ascension of ascending node: 318.5217°
argument of perigee: 306.0020°
revolutions per day: 14.49460192
mean anomaly at epoch: 53.9883°
orbit number at epoch: 77599

The dashed part of the orbit path shows where the satellite is in the earth's shadow,  

DLR